Location: ?ern� Novina
(50.6762°N, 14.8696°E)
Time: 11:55:50
(UTC+00:00)

SAR-Lupe-4 - Pass Details

Date: 03 March 2021
Orbit: 481 x 485 km, 98.2° (Epoch: 26 March)

Event Time Altitude Azimuth Distance (km) Brightness Sun altitude
Rises 18:03:58 0° 14° (NNE) 2,557 7.1 -13.2°
Reaches altitude 10° 18:06:03 10° 15° (NNE) 1,672 6.2 -13.5°
Maximum altitude 18:09:38 88° 96° (E) 490 3.5 -14.1°
Drops below altitude 10° 18:13:12 10° 195° (SSW) 1,658 6.4 -14.7°
Sets 18:15:15 0° 196° (SSW) 2,534 7.3 -15.0°
